Weather History for Orangeburg, SC

Change the Weather History Date:

Wednesday, December 12, 2012

  Actual Average Record
Temperature  
Mean Temperature 51 °F 48 °F  
Max Temperature 57 °F 59 °F 80 °F (2007)
Min Temperature 44 °F 38 °F 13 °F (1958)
Degree Days  
Heating Degree Days 14 17  
Month to date heating degree days 64 184  
Since 1 July heating degree days 514 553  
Cooling Degree Days 0 0  
Month to date cooling degree days 2 0  
Year to date cooling degree days 2322 2102  
Moisture  
Dew Point 43 °F    
Average Humidity 80    
Maximum Humidity 92    
Minimum Humidity 66    
Precipitation  
Precipitation 0.29 in 0.10 in 2.03 in (1983)
Month to date precipitation 0.34 1.34  
Year to date precipitation 38.64 44.75  
Sea Level Pressure  
Sea Level Pressure 30.18 in    
Wind  
Wind Speed 8 mph (NE)    
Max Wind Speed 16 mph    
Max Gust Speed 23 mph    
Visibility 9 miles    
Events Rain    
T = Trace of Precipitation, MM = Missing Value Source: NWS Daily Summary

Daily Weather History Graph

Daily Weather History Graph

Search for Another Location

Airport:

Trip Planner

Search our weather history database for the weather conditions in past years. The results will help you decide how hot, cold, wet, or windy it might be!

Date:

Astronomy

Dec. 12, 2012 Rise Set
Actual Time 7:18 AM EST 5:16 PM EST
Civil Twilight 6:50 AM EST 5:43 PM EST
Nautical Twilight 6:19 AM EST 6:14 PM EST
Astronomical Twilight 5:49 AM EST 6:45 PM EST
Moon 6:22 AM EST (12/12) 4:51 PM EST (12/12)
Length of Visible Light 10h 53m
Length of Day
9h 58m
Waning Crescent, 1% of the Moon is Illuminated
Dec 12
Waning Crescent
Dec 13
New
Dec 20
First Quarter
Dec 28
Full
Jan 4
Last Quarter

Hourly Weather History & Observations

Time (EST) Temp. Windchill Dew Point Humidity Pressure Visibility Wind Dir Wind Speed Gust Speed Precip Events Conditions
12:53 AM 55.9 °F - 46.0 °F 69% 30.09 in 10.0 mi NNW 4.6 mph - 0.00 in   Overcast
1:53 AM 55.9 °F - 45.0 °F 67% 30.09 in 10.0 mi NNE 5.8 mph - N/A   Mostly Cloudy
2:53 AM 55.0 °F - 46.0 °F 72% 30.10 in 10.0 mi Calm Calm - 0.00 in Rain Light Rain
3:53 AM 54.0 °F - 44.1 °F 69% 30.12 in 10.0 mi NE 5.8 mph - 0.00 in   Mostly Cloudy
4:53 AM 53.1 °F - 42.1 °F 66% 30.11 in 10.0 mi NNE 8.1 mph - N/A   Mostly Cloudy
5:53 AM 52.0 °F - 41.0 °F 66% 30.12 in 10.0 mi NNE 8.1 mph - 0.00 in   Mostly Cloudy
6:53 AM 51.1 °F - 37.9 °F 61% 30.15 in 10.0 mi NNE 8.1 mph - 0.00 in Rain Light Rain
7:53 AM 48.9 °F - 39.9 °F 71% 30.16 in 10.0 mi NNE 8.1 mph - 0.00 in   Unknown
8:53 AM 48.0 °F - 39.9 °F 74% 30.17 in 10.0 mi NNE 9.2 mph - 0.01 in   Overcast
9:34 AM 48.2 °F - 39.2 °F 71% 30.19 in 10.0 mi NE 8.1 mph - N/A   Overcast
9:53 AM 48.9 °F - 41.0 °F 74% 30.20 in 10.0 mi ENE 4.6 mph - N/A   Overcast
10:34 AM 50.0 °F - 42.8 °F 76% 30.21 in 10.0 mi NNE 8.1 mph - N/A   Overcast
10:53 AM 50.0 °F - 43.0 °F 77% 30.21 in 10.0 mi NNE 8.1 mph - N/A   Overcast
11:53 AM 51.1 °F - 44.1 °F 77% 30.20 in 10.0 mi NE 8.1 mph - 0.00 in   Overcast
12:53 PM 52.0 °F - 45.0 °F 77% 30.17 in 10.0 mi NNE 12.7 mph 18.4 mph N/A   Overcast
1:17 PM 51.8 °F - 44.6 °F 76% 30.17 in 10.0 mi NNE 12.7 mph - N/A   Overcast
1:53 PM 51.1 °F - 45.0 °F 80% 30.19 in 10.0 mi NNE 9.2 mph - 0.00 in Rain Light Rain
2:53 PM 50.0 °F - 44.1 °F 80% 30.18 in 9.0 mi NE 13.8 mph - 0.00 in Rain Light Rain
3:43 PM 48.2 °F - 44.6 °F 87% 30.17 in 7.0 mi NE 8.1 mph - 0.02 in Rain Light Rain
3:53 PM 48.9 °F - 45.0 °F 86% 30.18 in 6.0 mi NE 9.2 mph - 0.03 in Rain Light Rain
4:53 PM 48.9 °F - 45.0 °F 86% 30.20 in 5.0 mi NNE 4.6 mph - 0.03 in Rain Light Rain
5:26 PM 48.2 °F - 44.6 °F 87% 30.20 in 5.0 mi ENE 4.6 mph - 0.04 in Rain Rain
5:46 PM 48.2 °F - 44.6 °F 87% 30.19 in 5.0 mi ENE 9.2 mph - 0.07 in Rain Rain
5:53 PM 48.0 °F - 44.1 °F 86% 30.19 in 5.0 mi East 10.4 mph - 0.08 in Rain Light Rain
6:04 PM 48.2 °F - 44.6 °F 87% 30.20 in 6.0 mi NE 9.2 mph - 0.02 in Rain Light Rain
6:12 PM 48.2 °F - 44.6 °F 87% 30.21 in 6.0 mi NNE 10.4 mph - 0.03 in Rain Light Rain
6:37 PM 46.4 °F 40.7 °F 42.8 °F 87% 30.19 in 7.0 mi NE 12.7 mph - 0.04 in Rain Light Rain
7:06 PM 46.4 °F 41.1 °F 42.8 °F 87% 30.21 in 7.0 mi NNE 11.5 mph - 0.01 in Rain Light Rain
7:13 PM 46.4 °F 41.1 °F 42.8 °F 87% 30.21 in 6.0 mi NE 11.5 mph - 0.01 in Rain Rain
7:53 PM 46.0 °F 41.4 °F 42.1 °F 86% 30.19 in 7.0 mi NE 9.2 mph 19.6 mph 0.05 in Rain Light Rain
8:53 PM 45.0 °F 39.7 °F 42.1 °F 90% 30.20 in 7.0 mi NE 10.4 mph - 0.02 in Rain Light Rain
9:26 PM 44.6 °F 39.2 °F 41.0 °F 87% 30.19 in 10.0 mi NE 10.4 mph - 0.01 in Rain Light Rain
9:53 PM 44.1 °F 39.0 °F 41.0 °F 89% 30.18 in 10.0 mi NNE 9.2 mph - 0.01 in Rain Light Rain
10:02 PM 44.6 °F 39.7 °F 41.0 °F 87% 30.20 in 10.0 mi ENE 9.2 mph - 0.00 in Rain Light Rain
10:18 PM 44.6 °F 38.8 °F 39.2 °F 81% 30.20 in 10.0 mi NE 11.5 mph 18.4 mph 0.00 in   Overcast
10:53 PM 44.1 °F 39.5 °F 41.0 °F 89% 30.22 in 10.0 mi NE 8.1 mph - 0.00 in   Overcast
11:53 PM 44.1 °F 38.1 °F 39.9 °F 85% 30.28 in 10.0 mi NNW 11.5 mph - 0.00 in Rain Light Rain